Location: Unspecified
(41.1637°N, 0.0000°E)
Time: 18:50:53
(UTC+00:00)

Hubble Space Telescope - Visible Passes

Search period start: 17 June 2019 00:00
Search period end: 27 June 2019 00:00
Orbit: 536 x 540 km, 28.5° (Epoch: 16 June)

Date Brightness Start Highest point End Pass type
(mag) Time Alt. Az. Time Alt. Az. Time Alt. Az.
18 Jun 2.8 03:46:44 10° SSW 03:48:20 12° S 03:49:56 10° SSE visible
19 Jun 2.8 03:36:33 10° SSW 03:37:40 11° SSW 03:38:46 10° S visible
26 Jun 3.0 21:09:23 10° SSW 21:09:58 11° S 21:09:58 11° S visible
